Location: Utrecht
(52.0907°N, 5.1214°E)
Time: 02:54:13
(UTC+02:00)

VELOX 1 - Pass Details

Date: 30 June 2022
Orbit: 624 x 639 km, 98.4° (Epoch: 07 August)

Event Time Altitude Azimuth Distance (km) Brightness Sun altitude
Rises 04:28:30 0° 118° (ESE) 2,929 ? -6.5°
Reaches altitude 10° 04:31:15 10° 99° (E) 2,028 ? -6.3°
Maximum altitude 04:34:14 18° 57° (ENE) 1,563 ? -6.0°
Drops below altitude 10° 04:37:14 10° 14° (NNE) 2,042 ? -5.7°
Sets 04:40:01 0° 356° (N) 2,958 ? -5.4°
